Total_Precipitation_Accumulation
0.09 0.08 0.06 0.08 0.08 0.09 0.07 0.07 0.07 0.10 0.13 0.12 0.19 0.22 0.17 0.15 0.12 0.14 0.13 0.08 0.05 0.04 0.05 0.04 0.04 0.05 0.00 0.00 0.00 0.00 0.00 0.00 0.01 0.15 0.31 0.27 0.24 0.29 0.18 0.05 0.17 0.25 0.14 0.15 0.17 0.19 0.12
0.10 0.10 0.10 0.09 0.06 0.08 0.08 0.09 0.09 0.13 0.13 0.18 0.21 0.21 0.18 0.14 0.16 0.14 0.08 0.06 0.05 0.06 0.05 0.04 0.06 0.05 0.00 0.00 0.00 0.00 0.00 0.00 0.00 0.12 0.34 0.48 0.28 0.38 0.17 0.11 0.14 0.08 0.26 0.27 0.43 0.35 0.46
0.10 0.14 0.12 0.08 0.08 0.09 0.12 0.10 0.10 0.13 0.16 0.17 0.19 0.22 0.17 0.16 0.13 0.11 0.09 0.05 0.06 0.04 0.04 0.04 0.07 0.04 0.00 0.00 0.00 0.00 0.00 0.00 0.00 0.06 0.19 0.45 0.30 0.76 0.38 0.12 0.03 0.15 0.43 0.51 0.46 0.50 0.47
0.12 0.12 0.11 0.12 0.12 0.12 0.13 0.11 0.13 0.16 0.15 0.18 0.22 0.18 0.14 0.14 0.17 0.20 0.08 0.05 0.04 0.04 0.03 0.03 0.06 0.03 0.01 0.00 0.00 0.00 0.00 0.00 0.00 0.03 0.15 0.43 0.57 0.75 0.56 0.16 0.12 0.21 0.43 0.82 0.46 0.62 0.62
0.09 0.09 0.13 0.14 0.15 0.15 0.14 0.16 0.15 0.13 0.17 0.20 0.15 0.14 0.15 0.16 0.20 0.21 0.12 0.03 0.02 0.02 0.01 0.03 0.04 0.02 0.00 0.00 0.00 0.00 0.00 0.00 0.01 0.10 0.28 0.69 0.82 0.81 0.74 0.37 0.44 0.34 0.34 0.50 0.60 0.61 0.91
0.09 0.13 0.16 0.15 0.16 0.17 0.18 0.17 0.13 0.14 0.14 0.16 0.15 0.17 0.17 0.17 0.19 0.17 0.07 0.04 0.02 0.02 0.02 0.01 0.01 0.01 0.00 0.00 0.00 0.00 0.00 0.08 0.18 0.25 0.39 0.80 0.91 0.85 0.86 0.60 0.70 0.18 0.12 0.23 0.48 0.45 0.86
0.12 0.19 0.22 0.19 0.19 0.17 0.16 0.15 0.11 0.14 0.16 0.16 0.17 0.18 0.16 0.20 0.20 0.10 0.04 0.06 0.04 0.01 0.01 0.01 0.01 0.00 0.00 0.00 0.02 0.06 0.07 0.18 0.32 0.26 0.29 0.45 0.76 0.55 0.49 0.20 0.27 0.21 0.14 0.18 0.24 0.27 0.55
0.16 0.21 0.22 0.21 0.20 0.16 0.16 0.15 0.17 0.17 0.16 0.16 0.15 0.19 0.20 0.32 0.44 0.10 0.03 0.04 0.07 0.04 0.03 0.01 0.00 0.00 0.00 0.07 0.07 0.03 0.13 0.15 0.24 0.31 0.21 0.28 0.49 0.20 0.25 0.37 0.36 0.25 0.14 0.25 0.33 0.55 0.47
0.15 0.14 0.19 0.20 0.19 0.18 0.24 0.25 0.23 0.25 0.29 0.23 0.20 0.22 0.28 0.41 0.48 0.15 0.06 0.09 0.05 0.01 0.00 0.00 0.00 0.00 0.01 0.12 0.16 0.06 0.12 0.15 0.21 0.31 0.20 0.21 0.31 0.22 0.24 0.37 0.54 0.28 0.14 0.19 0.47 0.41 0.47
0.11 0.18 0.20 0.19 0.24 0.29 0.30 0.25 0.21 0.23 0.25 0.21 0.21 0.24 0.26 0.31 0.20 0.04 0.03 0.02 0.00 0.00 0.01 0.01 0.01 0.01 0.04 0.19 0.18 0.12 0.09 0.14 0.36 0.34 0.38 0.31 0.32 0.24 0.17 0.50 0.42 0.11 0.10 0.25 0.42 0.41 0.42
0.12 0.14 0.15 0.16 0.18 0.20 0.28 0.27 0.32 0.32 0.23 0.18 0.17 0.19 0.22 0.25 0.10 0.03 0.02 0.02 0.02 0.00 0.05 0.01 0.01 0.01 0.04 0.07 0.12 0.15 0.11 0.52 0.57 0.45 0.45 0.41 0.34 0.33 0.27 0.45 0.10 0.08 0.14 0.23 0.30 0.42 0.29
0.18 0.21 0.20 0.21 0.25 0.31 0.35 0.48 0.52 0.40 0.35 0.31 0.39 0.42 0.38 0.18 0.08 0.05 0.05 0.04 0.01 0.02 0.01 0.01 0.01 0.00 0.01 0.04 0.04 0.09 0.33 0.65 0.64 0.54 0.66 0.46 0.41 0.36 0.19 0.13 0.09 0.11 0.17 0.25 0.14 0.24 0.34
0.27 0.34 0.33 0.33 0.39 0.42 0.50 0.54 0.53 0.47 0.47 0.43 0.47 0.49 0.55 0.47 0.26 0.10 0.12 0.05 0.05 0.03 0.01 0.02 0.04 0.04 0.02 0.03 0.04 0.05 0.13 0.30 0.32 0.40 0.57 0.53 0.49 0.34 0.19 0.17 0.13 0.16 0.07 0.33 0.38 0.33 0.12
0.25 0.29 0.32 0.46 0.55 0.65 0.62 0.51 0.41 0.30 0.37 0.45 0.53 0.42 0.29 0.24 0.29 0.18 0.16 0.13 0.10 0.01 0.01 0.01 0.02 0.13 0.04 0.04 0.03 0.01 0.04 0.24 0.23 0.13 0.36 0.54 0.68 0.43 0.20 0.11 0.09 0.08 0.04 0.10 0.16 0.10 0.04
0.27 0.38 0.52 0.59 0.62 0.65 0.54 0.36 0.36 0.36 0.56 1.07 0.93 0.46 0.27 0.15 0.19 0.19 0.15 0.11 0.03 0.01 0.01 0.03 0.13 0.25 0.29 0.09 0.01 0.02 0.03 0.03 0.04 0.04 0.23 0.47 0.60 0.24 0.07 0.04 0.13 0.11 0.04 0.01 0.00 0.00 0.01
0.40 0.53 0.51 0.59 0.69 0.70 0.57 0.54 0.61 0.59 0.83 1.15 0.68 0.30 0.29 0.21 0.16 0.15 0.13 0.05 0.01 0.00 0.00 0.02 0.04 0.04 0.11 0.11 0.03 0.03 0.05 0.14 0.15 0.16 0.18 0.13 0.27 0.09 0.03 0.09 0.07 0.04 0.01 0.00 0.00 0.00 0.01
0.48 0.48 0.57 0.66 0.73 0.81 0.81 0.89 1.06 1.46 1.54 1.26 0.67 0.54 0.56 0.33 0.29 0.27 0.17 0.01 0.00 0.00 0.00 0.00 0.01 0.00 0.06 0.14 0.03 0.02 0.03 0.03 0.01 0.01 0.00 0.00 0.05 0.07 0.02 0.04 0.02 0.00 0.00 0.00 0.00 0.00 0.00
0.47 0.57 0.64 0.69 0.73 0.78 0.70 0.62 0.68 0.90 1.22 1.36 0.73 0.56 0.62 0.32 0.32 0.25 0.10 0.01 0.01 0.01 0.00 0.00 0.00 0.00 0.01 0.01 0.00 0.01 0.01 0.01 0.00 0.00 0.00 0.00 0.00 0.03 0.03 0.00 0.01 0.01 0.01 0.00 0.00 0.01 0.00
0.39 0.56 0.71 0.70 0.62 0.59 0.60 0.52 0.55 0.55 0.61 0.80 0.63 0.78 0.79 0.33 0.28 0.18 0.02 0.00 0.02 0.01 0.00 0.00 0.00 0.00 0.01 0.01 0.01 0.01 0.00 0.00 0.00 0.00 0.01 0.00 0.01 0.03 0.06 0.02 0.00 0.00 0.00 0.00 0.00 0.00 0.01
0.51 0.60 0.74 0.76 0.67 0.65 0.57 0.47 0.47 0.53 0.52 0.54 0.42 0.53 0.66 0.38 0.16 0.02 0.01 0.01 0.02 0.00 0.00 0.00 0.00 0.00 0.00 0.00 0.00 0.00 0.00 0.00 0.00 0.00 0.00 0.00 0.00 0.01 0.02 0.01 0.00 0.00 0.00 0.00 0.01 0.01 0.00
0.57 0.73 0.89 0.97 0.83 0.81 0.70 0.54 0.46 0.51 0.60 0.45 0.22 0.15 0.14 0.16 0.08 0.00 0.00 0.02 0.02 0.00 0.00 0.00 0.00 0.00 0.00 0.00 0.00 0.00 0.00 0.00 0.00 0.00 0.00 0.00 0.00 0.00 0.00 0.00 0.00 0.00 0.00 0.00 0.00 0.00 0.00
0.72 1.00 1.13 1.39 1.19 1.15 1.00 0.60 0.43 0.40 0.42 0.47 0.20 0.11 0.08 0.01 0.00 0.00 0.00 0.02 0.02 0.00 0.00 0.00 0.00 0.00 0.00 0.00 0.00 0.00 0.00 0.00 0.00 0.00 0.00 0.00 0.00 0.00 0.00 0.00 0.00 0.00 0.00 0.00 0.00 0.00 0.00
0.91 1.00 1.06 1.23 1.13 1.02 0.87 0.64 0.42 0.29 0.42 0.36 0.16 0.07 0.01 0.00 0.00 0.00 0.00 0.01 0.01 0.00 0.00 0.00 0.00 0.00 0.00 0.00 0.00 0.00 0.00 0.00 0.00 0.00 0.00 0.00 0.00 0.00 0.00 0.00 0.00 0.00 0.00 0.00 0.00 0.00 0.00
0.76 0.94 1.05 1.13 1.01 0.88 0.80 0.70 0.54 0.46 0.40 0.18 0.05 0.01 0.00 0.00 0.00 0.00 0.00 0.00 0.00 0.00 0.00 0.00 0.00 0.00 0.00 0.00 0.00 0.00 0.00 0.00 0.00 0.00 0.00 0.00 0.00 0.00 0.00 0.00 0.00 0.00 0.00 0.00 0.00 0.00 0.00
0.77 0.98 0.99 1.21 1.03 0.70 0.56 0.47 0.59 0.67 0.25 0.09 0.02 0.00 0.00 0.00 0.00 0.00 0.00 0.00 0.00 0.00 0.00 0.00 0.00 0.00 0.00 0.00 0.00 0.00 0.00 0.00 0.00 0.00 0.00 0.00 0.00 0.00 0.00 0.00 0.00 0.00 0.00 0.00 0.00 0.00 0.00
0.56 0.77 1.02 1.33 1.39 1.07 0.75 0.44 0.40 0.39 0.16 0.01 0.00 0.00 0.00 0.00 0.00 0.00 0.00 0.00 0.00 0.00 0.00 0.00 0.00 0.00 0.00 0.00 0.00 0.00 0.00 0.00 0.00 0.00 0.00 0.00 0.00 0.00 0.00 0.00 0.00 0.00 0.00 0.00 0.00 0.00 0.00
0.91 1.15 1.37 1.61 1.80 1.26 0.89 0.51 0.28 0.20 0.10 0.00 0.00 0.00 0.00 0.00 0.00 0.00 0.00 0.00 0.00 0.00 0.00 0.00 0.00 0.00 0.00 0.01 0.01 0.01 0.00 0.00 0.00 0.00 0.00 0.00 0.00 0.00 0.00 0.00 0.00 0.00 0.00 0.00 0.00 0.00 0.00
1.04 1.16 1.28 1.35 1.42 0.93 0.73 0.52 0.23 0.10 0.04 0.00 0.00 0.00 0.00 0.00 0.00 0.00 0.00 0.00 0.00 0.00 0.00 0.00 0.00 0.00 0.00 0.01 0.02 0.01 0.00 0.00 0.00 0.00 0.00 0.00 0.01 0.00 0.00 0.01 0.00 0.00 0.00 0.00 0.00 0.00 0.00
0.45 0.56 0.78 0.89 0.73 0.54 0.54 0.33 0.11 0.05 0.01 0.00 0.00 0.00 0.00 0.00 0.00 0.00 0.00 0.00 0.00 0.00 0.00 0.00 0.00 0.00 0.00 0.00 0.00 0.00 0.00 0.00 0.00 0.00 0.00 0.00 0.00 0.00 0.00 0.00 0.00 0.00 0.00 0.00 0.00 0.00 0.00